Location: Courcelles
(49.2596°N, 1.7419°E)
Time: 07:04:57
(UTC+00:00)

SJ 16-02 - Pass Details

Date: 17 November 2025
Orbit: 585 x 594 km, 75.0° (Epoch: 06 December)

Event Time Altitude Azimuth Distance (km) Brightness Sun altitude
Rises 19:47:22 0° 243° (WSW) 2,831 5.4 -35.3°
Reaches altitude 10° 19:50:10 10° 262° (W) 1,933 4.6 -35.8°
Enters shadow 19:51:53 16° 284° (WNW) 1,556 4.0 -36.1°
